CAPE
0 0 0 0 0 0 0 0 0 0 0 0 0 0 0 0 250 432 497 122 36 138 63 0 0 0 0 0 0 0 0 0 0 0 0 0 0 0 0 0 0 0 0 0
0 0 0 0 0 0 0 0 0 0 0 0 0 0 0 0 0 356 231 61 66 2 0 0 0 0 0 0 0 0 0 0 0 0 0 0 0 0 0 0 0 0 0 0
0 0 0 0 0 0 0 0 0 0 0 0 0 0 0 0 0 35 17 24 69 54 0 0 0 0 0 0 0 0 0 0 0 0 0 0 0 0 0 0 0 0 0 0
0 0 0 0 0 0 0 0 0 0 0 0 0 0 0 0 0 0 0 0 1 0 0 0 0 0 0 0 0 0 0 0 0 0 0 0 0 0 0 0 0 0 0 0
0 0 0 0 0 0 0 0 0 0 0 0 0 0 0 0 0 0 0 0 0 0 0 0 0 0 0 0 0 0 0 0 0 0 0 0 0 0 0 0 0 0 0 0
0 0 0 0 0 0 0 0 0 0 0 0 0 0 0 0 0 0 0 0 0 0 0 0 0 0 0 0 0 0 0 0 0 0 0 0 0 0 0 0 0 0 0 0
0 0 0 0 0 0 0 0 0 0 0 0 0 0 0 0 0 0 0 0 0 0 0 0 0 0 0 0 0 0 0 0 0 0 0 0 0 0 0 0 0 0 0 0
0 0 0 0 0 0 0 0 0 0 0 0 0 0 0 0 0 0 0 1 0 0 0 0 0 0 0 0 0 0 0 0 0 0 0 0 0 0 0 0 0 0 0 0
0 0 0 0 0 0 0 0 0 0 0 0 0 0 0 0 0 0 0 0 0 0 0 0 0 0 0 0 0 0 0 0 0 0 0 0 0 0 0 0 0 0 0 0
0 0 0 0 0 0 0 0 0 0 0 0 0 0 0 0 0 0 0 0 0 0 0 0 0 0 0 0 0 0 0 0 0 0 0 0 0 0 0 0 0 0 0 0
0 0 0 0 0 0 0 0 0 0 0 0 0 0 0 0 0 0 0 0 0 0 0 0 0 0 0 0 0 0 0 0 0 0 0 0 0 0 0 0 0 0 0 0
0 0 0 0 0 0 0 0 0 0 0 0 0 0 0 0 0 0 0 0 0 0 0 0 0 0 0 0 0 0 0 0 0 0 0 0 0 0 0 0 0 0 0 0
0 0 0 0 0 0 0 0 0 0 0 0 0 0 0 0 0 0 0 0 0 0 0 0 0 0 0 0 0 0 0 0 0 0 0 0 0 0 0 0 0 0 0 0
0 0 0 0 0 0 0 0 0 0 0 0 0 0 0 0 0 0 0 0 0 0 0 0 0 0 0 0 0 0 0 0 0 0 0 0 0 0 0 0 0 0 0 0
0 0 0 0 0 0 0 0 0 0 0 0 0 0 0 0 0 0 0 0 0 0 0 0 0 0 0 0 0 0 0 0 0 0 0 0 0 0 0 0 0 0 0 0
0 0 0 0 0 0 0 0 0 0 0 0 0 0 0 0 0 0 0 0 0 0 0 0 0 0 0 0 0 0 0 0 0 0 0 0 0 0 0 0 0 0 0 0
0 0 0 0 0 0 0 0 0 0 0 0 0 0 0 0 0 0 0 0 0 0 0 0 0 0 0 0 0 0 0 0 0 0 0 0 0 0 0 0 0 0 0 0
0 0 0 0 0 0 0 0 0 0 0 0 0 0 0 0 0 0 0 0 0 0 0 0 0 0 0 0 0 0 0 0 0 0 0 0 0 0 0 0 0 0 0 0
0 0 0 0 0 0 0 0 0 0 0 0 0 0 0 0 0 0 0 0 0 0 0 0 0 0 0 0 0 0 0 0 0 0 0 0 0 0 0 0 0 0 0 0
0 0 0 0 0 0 0 0 0 0 0 0 0 0 0 0 0 0 0 0 0 0 0 0 0 0 0 0 0 0 0 0 0 0 0 0 0 0 0 0 0 0 0 0
0 0 8 1 8 0 0 0 0 0 0 0 0 0 0 0 0 0 0 0 0 0 0 0 0 0 0 0 0 0 0 0 0 0 0 0 0 0 0 0 0 0 0 0
0 0 0 0 0 0 0 0 0 0 0 0 0 0 0 0 0 0 0 0 0 0 0 0 0 0 0 0 0 0 0 0 0 0 0 0 0 0 0 0 0 0 0 0
0 0 0 0 0 0 0 0 0 0 0 0 0 0 0 0 0 0 0 0 0 0 0 0 0 0 0 0 0 0 0 0 0 0 0 0 0 0 0 0 0 0 0 0
0 0 0 0 0 0 18 3 0 0 0 0 0 0 0 0 0 0 0 0 0 0 0 0 0 0 0 0 0 0 0 0 0 0 0 0 0 0 0 0 0 0 0 0
0 0 0 0 0 21 43 16 0 0 0 0 0 0 0 0 0 0 0 0 0 0 0 0 0 0 0 0 0 0 0 0 0 0 0 0 0 0 0 0 0 0 0 0
0 0 0 0 0 13 35 14 1 0 0 0 0 0 0 0 0 0 0 0 0 0 0 0 0 0 0 0 0 0 0 0 0 0 0 0 0 0 0 0 0 0 0 0
CIN
0 0 0 0 0 0 0 0 0 0 0 0 0 0 0 0 -185 -156 -175 -228 -246 -237 -243 0 0 0 0 0 0 0 0 0 0 0 0 0 0 0 0 0 0 0 0 0
0 0 0 0 0 0 0 0 0 0 0 0 0 0 0 0 0 -168 -151 -193 -235 -41 0 0 0 0 0 0 0 0 0 0 0 0 0 0 0 0 0 0 0 0 0 0
0 0 0 0 0 0 0 0 0 0 0 0 0 0 0 0 0 -283 -245 -241 -246 -265 0 0 0 0 0 0 0 0 0 0 0 0 0 0 0 0 0 0 0 0 0 0
0 0 0 0 0 0 0 0 0 0 0 0 0 0 0 0 0 0 0 0 -43 0 0 0 0 0 0 0 0 0 0 0 0 0 0 0 0 0 0 0 0 0 0 0
0 0 0 0 0 0 0 0 0 0 0 0 0 0 0 0 0 0 0 0 0 0 0 0 0 0 0 0 0 0 0 0 0 0 0 0 0 0 0 0 0 0 0 0
0 0 0 0 0 0 0 0 0 0 0 0 0 0 0 0 0 0 0 0 0 0 0 0 0 0 0 0 0 0 0 0 0 0 0 0 0 0 0 0 0 0 0 0
0 0 0 0 0 0 0 0 0 0 0 0 0 0 0 0 0 0 0 0 0 0 0 0 0 0 0 0 0 0 0 0 0 0 0 0 0 0 0 0 0 0 0 0
0 0 0 0 0 0 0 0 0 0 0 0 0 0 0 0 0 0 0 0 0 0 0 0 0 0 0 0 0 0 0 0 0 0 0 0 0 0 0 0 0 0 0 0
0 0 0 0 0 0 0 0 0 0 0 0 0 0 0 0 0 0 0 0 0 0 0 0 0 0 0 0 0 0 0 0 0 0 0 0 0 0 0 0 0 0 0 0
0 0 0 0 0 0 0 0 0 0 0 0 0 0 0 0 0 0 0 0 0 0 0 0 0 0 0 0 0 0 0 0 0 0 0 0 0 0 0 0 0 0 0 0
0 0 0 0 0 0 0 0 0 0 0 0 0 0 0 0 0 0 0 0 0 0 0 0 0 0 0 0 0 0 0 0 0 0 0 0 0 0 0 0 0 0 0 0
0 0 0 0 0 0 0 0 0 0 0 0 0 0 0 0 0 0 0 0 0 0 0 0 0 0 0 0 0 0 0 0 0 0 0 0 0 0 0 0 0 0 0 0
0 0 0 0 0 0 0 0 0 0 0 0 0 0 0 0 0 0 0 0 0 0 0 0 0 0 0 0 0 0 0 0 0 0 0 0 0 0 0 0 0 0 0 0
0 0 0 0 0 0 0 0 0 0 0 0 0 0 0 0 0 0 0 0 0 0 0 0 0 0 0 0 0 0 0 0 0 0 0 0 0 0 0 0 0 0 0 0
0 0 0 0 0 0 0 0 0 0 0 0 0 0 0 0 0 0 0 0 0 0 0 0 0 0 0 0 0 0 0 0 0 0 0 0 0 0 0 0 0 0 0 0
0 0 0 0 0 0 0 0 0 0 0 0 0 0 0 0 0 0 0 0 0 0 0 0 0 0 0 0 0 0 0 0 0 0 0 0 0 0 0 0 0 0 0 0
0 0 0 0 0 0 0 0 0 0 0 0 0 0 0 0 0 0 0 0 0 0 0 0 0 0 0 0 0 0 0 0 0 0 0 0 0 0 0 0 0 0 0 0
0 0 0 0 0 0 0 0 0 0 0 0 0 0 0 0 0 0 0 0 0 0 0 0 0 0 0 0 0 0 0 0 0 0 0 0 0 0 0 0 0 0 0 0
0 0 0 0 0 0 0 0 0 0 0 0 0 0 0 0 0 0 0 0 0 0 0 0 0 0 0 0 0 0 0 0 0 0 0 0 0 0 0 0 0 0 0 0
0 0 0 0 0 0 0 0 0 0 0 0 0 0 0 0 0 0 0 0 0 0 0 0 0 0 0 0 0 0 0 0 0 0 0 0 0 0 0 0 0 0 0 0
0 0 -5 -11 -13 0 0 0 0 0 0 0 0 0 0 0 0 0 0 0 0 0 0 0 0 0 0 0 0 0 0 0 0 0 0 0 0 0 0 0 0 0 0 0
0 0 0 0 0 0 0 0 0 0 0 0 0 0 0 0 0 0 0 0 0 0 0 0 0 0 0 0 0 0 0 0 0 0 0 0 0 0 0 0 0 0 0 0
0 0 0 0 0 0 0 0 0 0 0 0 0 0 0 0 0 0 0 0 0 0 0 0 0 0 0 0 0 0 0 0 0 0 0 0 0 0 0 0 0 0 0 0
0 0 0 0 0 0 -94 -18 0 0 0 0 0 0 0 0 0 0 0 0 0 0 0 0 0 0 0 0 0 0 0 0 0 0 0 0 0 0 0 0 0 0 0 0
0 0 0 0 0 -73 -112 -137 0 0 0 0 0 0 0 0 0 0 0 0 0 0 0 0 0 0 0 0 0 0 0 0 0 0 0 0 0 0 0 0 0 0 0 0
0 0 0 0 0 -12 -86 -152 -31 0 0 0 0 0 0 0 0 0 0 0 0 0 0 0 0 0 0 0 0 0 0 0 0 0 0 0 0 0 0 0 0 0 0 0
Wind_Speed
17 17 18 20 16 15 15 15 17 20 22 18 20 19 18 6 5 9 12 11 9 13 5 3 6 5 3 2 2 1 2 4 5 6 8 12 16 20 24 28 30 34 36 38
19 20 16 15 15 17 18 20 21 20 18 15 19 24 25 15 8 12 11 9 8 5 4 5 3 4 4 3 3 5 5 6 8 9 12 14 16 20 23 28 33 36 37 39
17 16 10 15 16 17 18 18 22 22 21 18 24 25 25 23 14 12 14 14 10 13 8 7 5 6 6 6 7 7 8 10 12 13 14 16 19 22 26 34 36 37 37 38
19 19 17 18 16 14 22 17 18 19 18 21 21 25 24 23 19 13 19 25 23 15 13 11 10 11 9 8 8 8 10 13 16 18 20 22 25 29 31 33 35 36 37 39
15 12 11 14 14 15 18 18 13 15 18 21 22 23 21 21 19 22 25 30 31 28 15 13 12 11 10 10 9 10 12 15 19 21 25 27 28 28 31 34 37 38 40 41
15 14 15 14 19 20 17 14 15 16 19 22 20 21 22 23 24 21 23 23 23 21 17 14 13 9 7 8 10 12 15 17 21 23 29 29 29 31 34 35 38 40 41 41
20 22 19 18 23 16 13 14 19 21 21 22 18 20 20 23 20 20 22 22 21 20 18 15 13 10 8 7 7 11 18 21 26 27 27 27 29 31 33 35 38 39 40 41
17 22 15 13 12 16 13 13 18 21 19 19 16 19 19 18 16 18 19 19 20 19 17 15 13 12 12 12 11 15 19 20 23 24 25 28 30 32 33 34 35 36 37 39
13 18 17 13 13 14 16 16 16 18 19 20 20 19 18 15 17 17 18 19 19 18 16 14 13 12 11 11 12 15 17 21 24 26 26 29 31 33 35 35 33 33 35 36
15 18 15 15 13 16 16 11 18 19 21 23 22 21 20 16 18 17 18 17 17 15 14 13 12 12 13 13 15 16 17 23 24 24 26 28 32 33 34 33 33 35 35 34
16 18 17 15 15 14 15 17 17 16 18 21 23 23 17 14 16 15 15 15 15 13 12 10 11 14 15 16 19 21 24 23 22 24 28 30 31 32 33 33 34 35 33 31
14 16 22 23 21 19 16 15 15 19 21 20 21 25 15 13 18 15 14 14 13 12 10 9 10 12 15 18 21 22 24 21 22 26 29 29 30 33 33 35 35 33 33 29
12 20 21 21 17 15 16 15 14 14 17 19 22 23 18 15 17 13 10 10 10 9 10 9 10 13 15 17 20 22 22 23 24 27 28 29 32 34 34 34 34 33 30 29
12 17 20 21 21 18 19 17 15 17 22 20 21 23 20 13 10 9 7 8 9 8 9 10 12 14 14 18 19 20 21 23 26 28 29 31 32 31 32 34 34 32 29 29
15 18 17 17 17 16 17 17 17 20 19 24 23 22 22 9 4 4 5 8 9 8 8 9 11 13 15 17 19 18 23 25 27 28 29 30 30 29 32 33 34 30 31 29
16 15 13 16 15 14 17 18 19 20 20 24 28 26 27 24 11 8 6 7 7 8 9 8 11 13 14 16 20 21 23 26 27 28 28 27 27 28 30 32 34 32 33 29
17 13 17 19 20 22 27 26 23 25 23 23 29 28 26 25 16 9 6 6 7 8 8 8 9 12 13 16 16 20 24 27 27 26 26 26 25 27 27 30 33 33 32 28
14 15 19 20 19 26 22 22 23 21 21 22 23 24 21 20 16 17 12 7 9 9 7 8 11 12 13 15 18 21 24 23 26 26 26 26 25 27 24 27 31 32 32 33
16 15 19 20 20 24 19 19 15 20 25 19 18 18 18 15 17 18 16 12 9 9 9 9 10 12 13 16 19 20 21 23 25 26 27 25 26 24 22 25 28 31 33 34
16 16 19 19 21 24 20 18 15 17 27 15 14 15 14 13 20 20 15 12 11 10 9 9 11 12 15 16 17 19 22 25 26 27 25 23 24 22 22 22 25 28 30 31
19 20 19 20 23 25 20 16 13 20 23 11 12 13 12 16 19 17 13 13 10 9 9 10 11 12 13 14 17 18 22 24 26 24 23 25 22 22 20 19 22 24 28 31
19 19 21 20 23 29 16 14 16 17 17 13 14 15 15 16 16 14 13 11 9 9 10 10 11 11 12 15 17 20 22 25 25 24 24 25 25 23 20 18 19 21 24 28
23 19 20 18 20 20 16 18 18 16 16 15 17 18 15 15 15 12 10 9 9 9 9 10 11 11 11 14 18 21 24 26 25 24 25 26 25 24 21 20 19 20 21 26
22 20 23 23 22 22 20 18 16 16 15 14 17 15 13 13 10 9 8 8 8 9 8 9 10 11 14 13 16 20 23 24 25 25 26 27 26 25 22 22 22 21 21 22
23 21 22 24 23 19 16 15 13 14 13 14 14 13 12 10 9 7 7 7 8 9 9 9 10 11 13 16 18 21 23 24 25 24 26 27 27 26 23 21 21 23 20 20
20 21 22 24 19 18 16 15 13 12 14 12 13 13 11 10 8 8 8 8 9 9 9 10 10 12 14 15 19 21 22 23 25 24 26 26 27 26 24 24 27 25 21 21
Wind_Direction
294 295 290 291 301 301 299 304 305 307 307 315 315 318 326 332 222 206 197 197 198 199 210 228 200 210 241 281 259 310 111 62 39 28 11 356 352 356 355 351 352 349 345 343
289 288 296 307 305 298 294 293 295 309 319 326 321 313 315 330 226 198 201 215 223 234 276 304 223 227 257 278 299 319 339 358 355 354 352 352 353 354 353 351 347 346 344 342
286 302 315 302 303 299 295 294 289 297 307 320 311 310 314 326 329 301 295 298 281 232 264 289 281 281 295 308 315 331 342 347 350 352 356 354 351 347 344 342 342 345 345 344
291 287 289 296 301 315 294 304 301 301 309 312 321 312 318 323 327 319 310 309 305 302 299 292 299 306 310 318 331 337 340 342 345 347 342 344 341 337 341 341 342 344 345 344
292 291 295 297 308 321 308 311 309 313 313 313 315 316 322 332 337 328 319 313 316 317 313 319 315 309 315 317 328 335 340 338 339 346 340 339 340 344 343 342 342 344 344 346
284 296 297 299 302 308 314 316 315 316 317 310 314 314 316 319 318 333 338 342 346 354 356 351 347 335 317 317 324 330 331 335 335 340 335 338 342 343 343 344 344 345 347 346
282 281 287 294 291 310 314 308 302 305 309 308 318 318 321 325 333 338 338 345 353 359 2 1 358 2 352 329 322 324 326 324 333 330 339 340 344 345 346 346 347 347 347 347
278 282 284 290 287 300 307 306 298 305 310 317 326 320 328 339 348 349 351 352 355 357 3 11 13 4 350 347 334 327 332 331 343 344 342 341 344 347 349 349 349 348 350 351
293 292 291 288 291 299 300 300 311 308 314 312 315 322 331 345 342 343 346 347 349 358 6 14 21 21 13 6 357 356 353 349 344 344 345 342 343 347 348 349 351 352 353 354
283 293 305 295 297 301 300 305 303 309 301 303 312 315 321 330 333 339 341 346 350 359 3 9 16 17 15 10 358 356 3 350 347 348 347 348 344 348 347 349 351 351 352 354
272 282 293 302 300 297 303 298 302 313 309 304 307 315 331 335 339 342 347 350 352 358 4 10 7 359 358 355 349 344 344 345 348 346 343 347 347 350 350 351 352 352 352 355
266 287 280 284 293 301 307 310 306 299 302 309 313 314 340 340 337 343 346 347 357 7 18 24 16 10 2 352 344 345 352 355 348 344 344 347 352 350 352 353 353 354 356 358
264 276 277 290 298 303 303 308 315 320 315 308 310 317 330 334 338 347 355 5 15 23 19 19 17 4 359 356 350 347 352 354 349 347 351 352 350 352 355 356 356 356 357 356
274 282 274 273 288 299 294 299 303 306 302 308 309 318 324 327 342 354 359 1 5 15 15 8 1 359 3 356 354 351 356 350 352 351 352 350 352 359 1 2 2 2 1 356
289 281 284 289 294 299 301 301 302 304 305 302 309 315 326 323 294 325 348 355 357 359 4 3 3 1 0 357 348 349 347 347 352 350 348 351 359 6 7 8 8 9 0 4
299 285 286 289 296 302 300 305 307 305 309 305 302 309 310 319 330 326 323 336 345 347 352 4 3 4 359 357 344 340 342 347 347 345 349 359 5 8 11 11 11 9 360 9
283 281 283 285 290 293 292 295 298 303 306 308 304 306 310 315 323 319 321 327 336 343 350 359 6 2 2 351 358 351 342 340 343 351 357 3 9 13 13 15 13 12 9 15
278 281 287 290 297 290 301 296 301 307 313 314 313 310 317 321 329 332 339 334 340 348 358 7 10 10 15 4 356 347 344 355 350 353 360 6 15 12 19 17 11 12 8 5
285 282 287 287 289 297 304 304 312 309 305 315 317 318 324 335 336 335 341 346 349 356 8 18 27 32 18 8 354 359 356 355 351 352 1 12 13 16 22 17 12 8 7 4
288 292 284 289 291 294 304 305 313 315 304 314 316 322 330 338 330 334 346 353 360 9 26 35 34 32 11 5 3 2 348 344 347 353 7 13 15 22 21 20 17 13 13 13
277 283 281 286 289 294 301 308 319 304 308 334 331 330 335 330 330 343 354 356 8 25 34 37 29 22 14 12 8 6 352 349 348 4 10 9 20 20 21 24 20 18 12 10
277 278 283 290 290 289 301 301 298 312 323 326 326 328 332 334 342 350 355 6 17 24 22 25 22 23 26 7 1 351 351 346 353 1 7 14 16 18 22 26 22 19 16 10
277 284 289 292 297 304 304 300 304 314 316 316 318 325 331 335 335 347 360 9 11 16 18 27 22 28 22 13 354 346 345 343 348 1 9 9 13 17 24 25 23 20 18 11
284 291 288 293 297 297 299 304 312 315 318 324 328 335 341 343 356 4 12 20 17 13 22 30 35 30 356 19 6 343 343 348 353 2 4 5 10 13 22 25 20 19 17 13
283 288 289 291 296 299 301 305 312 320 331 335 341 346 352 6 12 28 22 19 17 20 27 28 26 22 1 349 354 339 342 353 355 6 4 5 9 13 19 23 20 14 17 16
285 287 286 289 296 295 294 303 310 316 321 334 341 345 356 8 33 43 47 48 45 41 36 28 31 21 360 1 342 333 345 354 357 2 3 7 9 14 20 20 14 10 12 12